Wind_Speed
21 25 25 25 24 25 26 23 18 22 27 29 29 30 29 31 33 35 37 38 40 44
19 21 21 20 17 19 18 16 19 20 22 21 22 26 28 32 34 35 34 37 36 45
15 17 19 18 16 14 16 16 18 19 20 23 25 23 24 31 33 35 42 40 44 32
10 12 13 9 10 13 14 16 18 18 18 19 23 25 20 16 13 12 13 13 19 24
4 2 3 6 5 7 10 12 11 17 17 21 20 21 17 15 15 19 21 21 21 19
16 13 13 15 14 11 8 11 10 9 6 2 4 5 4 3 5 7 9 10 12 14
19 16 15 13 11 9 9 8 9 8 7 4 2 2 3 4 6 8 12 14 16 16
10 9 12 10 9 7 7 4 5 6 5 7 7 6 7 11 11 11 10 10 12 13
7 4 6 5 5 4 4 3 1 4 5 6 8 10 9 9 10 12 14 15 15 16
5 5 4 4 4 3 3 4 4 4 4 5 7 9 10 11 12 13 14 15 16 16
6 6 5 5 5 6 6 7 8 8 8 8 9 10 11 11 11 12 13 13 14 15
7 7 8 8 8 8 8 8 7 6 6 6 7 8 11 10 9 9 10 12 13 17
9 9 9 9 9 8 7 6 5 5 6 6 7 10 13 14 12 11 12 11 11 12
11 10 9 8 7 6 6 6 7 9 10 11 12 11 12 10 7 9 11 10 12 11
Wind_Direction
225 227 229 230 228 230 233 227 225 242 237 241 247 251 251 257 258 261 261 259 258 258
222 227 228 224 224 224 229 234 237 238 249 253 253 256 255 255 261 264 262 262 262 254
210 211 210 210 216 224 233 239 236 232 242 252 252 246 248 253 256 259 261 262 268 259
192 205 217 226 250 250 247 255 258 259 243 240 235 238 239 232 239 240 240 256 257 250
83 69 265 203 158 200 216 216 231 239 234 228 216 209 226 240 247 260 267 267 265 268
105 108 102 105 102 111 117 122 120 137 168 188 143 145 175 268 264 269 277 276 270 265
79 77 80 68 71 65 61 54 53 68 67 24 14 13 35 326 318 300 298 298 297 292
68 67 69 81 71 63 62 27 9 26 6 350 349 340 306 290 300 295 298 299 300 300
80 64 79 85 75 71 67 60 346 287 287 295 295 296 295 298 296 298 300 300 300 301
60 42 33 24 16 7 9 6 0 355 344 336 320 320 318 314 314 311 310 310 310 310
15 12 8 2 357 354 351 347 345 342 341 343 332 337 335 334 330 326 328 328 326 319
349 345 342 340 339 338 336 337 343 346 346 348 341 346 347 345 353 352 336 335 341 323
340 335 330 328 328 332 337 340 339 342 344 347 355 353 359 6 10 349 338 338 327 320
328 322 319 319 319 329 339 345 353 4 359 358 348 352 5 13 14 339 337 330 329 322
Height
1428 1431 1433 1435 1438 1441 1445 1447 1449 1450 1453 1456 1458 1460 1461 1462 1462 1463 1463 1465 1466 1467
1426 1428 1429 1432 1435 1437 1440 1442 1443 1446 1448 1450 1452 1454 1455 1456 1455 1455 1455 1455 1457 1457
1422 1424 1426 1427 1430 1432 1435 1438 1438 1440 1442 1444 1445 1446 1447 1448 1447 1448 1447 1447 1448 1446
1422 1423 1424 1425 1428 1430 1431 1433 1433 1436 1437 1438 1440 1440 1442 1442 1442 1442 1442 1439 1440 1441
1423 1424 1425 1426 1427 1428 1429 1430 1431 1432 1433 1435 1436 1434 1434 1437 1435 1437 1437 1437 1437 1438
1424 1427 1428 1427 1428 1429 1430 1428 1430 1431 1431 1435 1431 1427 1429 1433 1432 1433 1434 1434 1434 1432
1429 1430 1431 1430 1431 1432 1431 1431 1430 1430 1434 1435 1432 1429 1428 1431 1430 1433 1432 1431 1431 1430
1435 1435 1432 1432 1434 1434 1433 1433 1432 1433 1434 1431 1429 1430 1428 1428 1431 1430 1430 1429 1429 1428
1438 1438 1435 1434 1435 1436 1436 1436 1435 1434 1432 1431 1430 1429 1429 1429 1429 1427 1426 1425 1424 1423
1441 1439 1438 1437 1436 1435 1434 1435 1435 1434 1432 1430 1428 1427 1426 1426 1424 1423 1422 1420 1419 1417
1440 1439 1438 1438 1437 1435 1434 1434 1432 1431 1429 1428 1426 1425 1424 1422 1421 1419 1418 1417 1416 1413
1440 1439 1438 1436 1435 1434 1433 1432 1430 1429 1428 1427 1425 1423 1422 1420 1418 1418 1417 1416 1414 1411
1439 1438 1437 1436 1434 1433 1431 1430 1429 1428 1427 1425 1424 1421 1419 1416 1415 1415 1414 1413 1412 1410
1438 1437 1436 1434 1433 1431 1430 1429 1428 1426 1425 1423 1421 1419 1416 1416 1416 1415 1412 1410 1409 1408